Flag Weather past 2 weeks in Tucumán, Tucumán, Argentina

Now
64 °F

Sunny.


Feels Like: 64 °F
Forecast: 63 / 96 °F
Wind: 7 mph from Northwest

Location: Tucuman Aerodrome

Current Time: Nov 23, 2014 at 7:06:50 AM

Latest Report: Nov 23, 2014 at 6:00 AM


Visibility: 10 mi

Pressure: 29.86 "Hg

Humidity: 78%

Dew point: 57 °F

Location of TucumánLocation

Historic Weather in Tucumán — Graph

°F

Tucumán temperature yesterday

Maximum temperature yesterday: 82 °F (at 2:00 PM)
Minimum temperature yesterday: 63 °F (at 12:00 AM)
Average temperature yesterday: 72 °F

Past Weeks' High & Low Weather Summary

 TemperatureHumidityPressure
High97 °F (Nov 9, 4:00 PM)100% (Nov 10, 8:00 PM)30.15 "Hg (Nov 10, 8:00 PM)
Low55 °F (Nov 14, 4:00 AM)23% (Nov 8, 2:00 PM)29.56 "Hg (Nov 19, 4:00 AM)
Average75 °F60%29.91 "Hg
* Reported Nov 8 6:00 AM — Nov 23 6:00 AM, Tucumán, Weather by CustomWeather, © 2014

Note: Actual official high and low records may vary slightly from our data, if they occured in-between our weather recording intervals... More about our weather records

Advertising

Tucumán weather history for previous 24 hours

 ConditionsComfort  
Time TempWeatherWind HumidityBarometerVisibility
6:00 AM
Nov 23
64 °FSunny.7 mph78%29.86 "Hg10 mi
5:00 AM66 °FClear.9 mph73%29.86 "Hg10 mi
3:00 AM70 °FClear.7 mph69%29.89 "Hg10 mi
2:00 AM68 °FClear.7 mph73%29.92 "Hg10 mi
1:00 AM70 °FClear.9 mph69%29.95 "Hg10 mi
12:00 AM70 °FClear.5 mph73%29.95 "Hg10 mi
11:00 PM
Nov 22
73 °FClear.9 mph65%29.98 "Hg10 mi
10:00 PM75 °FPassing clouds.9 mph61%29.95 "HgN/A
9:00 PM79 °FPassing clouds.12 mph51%29.92 "HgN/A
8:00 PM81 °FPassing clouds.9 mph48%29.92 "HgN/A
7:00 PM82 °FPassing clouds.9 mph45%29.89 "HgN/A
6:00 PM82 °FPartly sunny.12 mph45%29.92 "HgN/A
5:00 PM82 °FScattered clouds.12 mph42%29.92 "HgN/A
4:00 PM82 °FPartly sunny.9 mph45%29.95 "HgN/A
3:00 PM82 °FScattered clouds.6 mph45%29.98 "HgN/A
2:00 PM82 °FScattered clouds.5 mph45%30.01 "HgN/A
12:00 PM79 °FScattered clouds.9 mph54%30.07 "HgN/A
11:00 AM73 °FPartly sunny.6 mph69%30.07 "HgN/A
10:00 AM72 °FPartly sunny.5 mph73%30.07 "HgN/A
9:00 AM68 °FPartly sunny.6 mph83%30.07 "HgN/A
8:00 AM66 °FPartly sunny.6 mph88%30.07 "HgN/A
7:00 AM64 °FPartly sunny.5 mph88%30.04 "HgN/A
Weather by CustomWeather, © 2014

See weather overviewHow to use our weather pages